Showing default

VSP RF C1, 59136

Orbit data source: Space-Track

VSP RF C1, 59136 is a payload satellite owned by Aerospacelab (BE) in SSO that was launched on Mon, 04 Mar 2024 UTC via an FALCON 9 launch vehicle from the Air Force Western Test Range (AFWTR). Payload-class satellites include a variety of spacecraft equipped with specific instruments for various scientific and technological missions. These include communications satellites like Starlink; space stations such as the ISS; scientific satellites like the Hubble; Earth observation satellites from companies like Planet Labs, Umbra, and HawkEye 360; GPS; miniature CubeSats for education and research; and military/defense satellites.

Loading next visibility...
Identifier
59136, 2024-043AQ
Orbit
SSO
Country
Flag of BEBE / BEL
Related business
Manufacturer
Aerospacelab
Mission
Operational Commercial Sigint
Bus & Motor
AEROSP, Unknown motor
Mass
~200 kg wet, ~200 kg dry
Launch date (UTC)
2024-03-04 (2 years ago)
Launch vehicle
FALCON 9
Launch site
Air Force Western Test Range (AFWTR)
Object type
Payload
Rocket body
Debris
Shape & HBR
Box + 2 Pan, 1.0 m
Radar Cross Section
0.963 m², Large (>1 m²)

Expand to show TLE details & history
Last TLE update: 12 hours ago

TLE from 12 hours ago
0 VSP RF C1
1 59136U 24043AQ  26235.59400017  .00003551  00000-0  13233-3 0  9990
2 59136  97.5694  14.6214 0002759  32.9164 327.2247 15.28127708137382
Epoch: 2026-08-23T14:15Z
TLE epoch observation values (Epoch: 2026-08-23T14:15:21.614Z)
Latitude
0.00002°
Longitude
-171.10648°
Altitude
482.915 km
Speed
7.625 km/s
True Right ascension
00h 58m 29s
True Declination
0° 00' 00"
Sunlit
Object was in full shadow at epoch
Visualization orbit readout
Latitude
Unknown
Longitude
Unknown
Altitude
Unknown
Speed
Unknown
Apparent Right ascension
Unknown
Apparent Declination
Unknown
Sunlit
N/A
Visualization observer readout
Local Sidereal Time
17:50:11
Azimuth
Unknown
Elevation
Unknown
Doppler factor
Unknown
Orbital elements
Apogee altitude
480.263 km
Perigee altitude
476.48 km
Semi-major axis
6,856.509 km
Eccentricity
0.00028
Inclination
97.5694°
RAAN
14.6214°
Arg. of periapsis
32.9164°
True anomaly
327.20758°
Mean anomaly
327.2247°
Eccentric anomaly
327.21614°
Mean motion
3.82286 °/min
Orbital period
94.17 mins
BSTAR
0.00013233
Loading maneuver chart data...
Computing Atmospheric mass density...
Loading historical data...
Loading historical data...
Loading historical data...
Loading historical data...
Loading historical data...
Loading historical data...
Loading historical data...

Documentation

Showing up to 5 results
|